[Date Prev][Date Next][Thread Prev][Thread Next] - [Date Index][Thread Index][Author Index]
2 Line ISS Keps 4-27
- Subject: [sarex] 2 Line ISS Keps 4-27
- From: "Dave Larsen PhD" <doc@xxxxxxxxxxx>
- Date: Sat, 27 Apr 2002 02:40:20 -0700
ISS
1 25544U 98067A 02117.21342593 .00037296 00000-0 48907-3 0 3600
2 25544 51.6391 309.1145 0007188 9.1241 155.3187 15.58157278196073
----
Via the sarex mailing list at AMSAT.ORG courtesy of AMSAT-NA.
To unsubscribe, send "unsubscribe sarex" to Majordomo@amsat.org
AMSAT Home